N6EQ Weather Reports


time (UTC)temp
F
wind
direction
speed
knots
gust
knots
rain 1hr
in
rain 24hr
in
rain mn
in
humidity
%
barometer
mb
20260506123008 61 101 0.0 0.0 0.00 0.00 0.00 42 952.6
20260506121505 61 112 0.0 0.9 0.00 0.00 0.00 42 952.5
20260506120002 61 116 0.0 0.9 0.00 0.00 0.00 42 952.4
20260506114501 61 145 0.0 0.9 0.00 0.00 0.00 42 952.4
20260506113100 61 112 0.0 0.0 0.00 0.00 0.00 42 952.3
20260506111600 61 243 0.0 0.0 0.00 0.00 0.00 42 952.2
20260506104551 62 116 0.0 0.0 0.00 0.00 0.00 41 951.8
20260506103048 62 134 0.0 0.0 0.00 0.00 0.00 41 951.7
20260506101554 63 159 0.0 0.0 0.00 0.00 0.00 40 951.6
20260506100044 63 243 0.0 0.0 0.00 0.00 0.00 40 951.6
20260506094542 64 277 0.0 0.9 0.00 0.00 0.00 39 951.4
20260506093042 64 240 0.0 0.0 0.00 0.00 0.00 37 951.4
20260506091538 65 198 0.0 0.0 0.00 0.00 0.00 37 951.3
20260506090037 65 139 0.0 0.9 0.00 0.00 0.00 37 951.3
20260506084543 65 82 0.0 0.0 0.00 0.00 0.00 37 951.3
20260506083035 65 82 0.0 0.0 0.00 0.00 0.00 36 951.3
20260506081540 65 84 0.0 0.0 0.00 0.00 0.00 36 951.3
20260506073025 67 262 0.0 0.0 0.00 0.00 0.00 33 951.1
20260506071522 67 250 0.0 0.0 0.00 0.00 0.00 32 950.9
20260506061515 69 117 0.0 3.5 0.00 0.00 0.00 29 950.4
20260506044513 72 147 4.3 8.7 0.00 0.00 0.00 27 949.5
20260506043004 72 118 4.3 8.7 0.00 0.00 0.00 26 949.4
20260506041504 72 145 6.1 9.6 0.00 0.00 0.00 26 949.2
20260506040003 72 155 3.5 7.0 0.00 0.00 0.00 25 949.0
20260506034504 73 134 2.6 7.0 0.00 0.00 0.00 25 948.8
20260506033002 73 141 2.6 6.1 0.00 0.00 0.00 25 948.6
20260506031603 73 146 3.5 7.8 0.00 0.00 0.00 25 948.5
20260506030059 73 152 0.9 7.0 0.00 0.00 0.00 25 948.3
20260506024608 74 169 2.6 7.8 0.00 0.00 0.00 25 948.0
20260506023111 74 168 5.2 7.8 0.00 0.00 0.00 24 947.9
20260506021557 75 198 1.7 7.8 0.00 0.00 0.00 24 947.6
20260506020058 75 210 3.5 7.0 0.00 0.00 0.00 24 947.5
20260506014557 76 186 3.5 7.0 0.00 0.00 0.00 23 947.3
20260506013103 76 197 3.5 8.7 0.00 0.00 0.00 23 947.2
20260506011604 77 7.0 15.6 0.00 0.00 0.00 23 947.2
20260506010055 76 3.5 10.4 0.00 0.00 0.00 23 947.1
20260506004558 77 219 4.3 12.2 0.00 0.00 0.00 22 947.0
20260506003154 77 141 5.2 11.3 0.00 0.00 0.00 22 946.9
20260506001556 77 234 5.2 11.3 0.00 0.00 0.00 22 946.9
20260506000057 77 115 3.5 7.8 0.00 0.00 0.00 22 946.9
20260505234550 77 116 7.0 11.3 0.00 0.00 0.00 22 947.0
20260505233053 77 240 2.6 10.4 0.00 0.00 0.00 22 947.0
20260505231548 77 245 6.1 12.2 0.00 0.00 0.00 23 947.0
20260505230111 76 216 7.8 11.3 0.00 0.00 0.00 23 947.1
20260505224545 76 234 3.5 13.0 0.00 0.00 0.00 23 947.2
20260505223045 76 204 5.2 9.6 0.00 0.00 0.00 24 947.4
20260505221545 75 210 9.6 13.0 0.00 0.00 0.00 25 947.4
20260505220050 75 226 8.7 16.5 0.00 0.00 0.00 25 947.7
20260505214538 74 283 2.6 8.7 0.00 0.00 0.00 25 947.9
20260505213036 74 150 7.0 11.3 0.00 0.00 0.00 25 948.1
20260505211536 73 130 0.9 6.1 0.00 0.00 0.00 26 948.2
20260505210037 74 233 3.5 8.7 0.00 0.00 0.00 26 948.4
20260505204536 75 212 5.2 9.6 0.00 0.00 0.00 25 948.5
20260505203034 73 114 0.9 7.0 0.00 0.00 0.00 27 948.5
20260505201533 73 212 7.0 16.5 0.00 0.00 0.00 28 948.6
20260505200039 73 252 7.0 12.2 0.00 0.00 0.00 27 948.8
20260505194531 74 293 3.5 14.8 0.00 0.00 0.00 28 948.8
20260505193129 74 219 7.0 13.9 0.00 0.00 0.00 28 948.8
20260505191530 73 188 4.3 16.5 0.00 0.00 0.00 29 949.0
20260505190025 73 6.1 11.3 0.00 0.00 0.00 29 949.2
20260505184524 72 7.8 14.8 0.00 0.00 0.00 31 949.3
20260505183025 71 2.6 12.2 0.00 0.00 0.00 32 949.3
20260505181523 71 3.5 13.0 0.00 0.00 0.00 33 949.4
20260505180019 71 264 5.2 10.4 0.00 0.00 0.00 32 949.4
20260505174518 70 3.5 10.4 0.00 0.00 0.00 33 949.4
20260505173015 70 215 2.6 10.4 0.00 0.00 0.00 34 949.4
20260505171513 69 249 1.7 9.6 0.00 0.00 0.00 35 949.4
20260505170012 69 248 1.7 8.7 0.00 0.00 0.00 35 949.3
20260505164512 68 6.1 10.4 0.00 0.00 0.00 36 949.3
20260505163011 68 2.6 13.0 0.00 0.00 0.00 37 949.2
20260505161528 67 200 0.9 10.4 0.00 0.00 0.00 39 949.3
20260505153013 65 254 0.9 6.1 0.00 0.00 0.00 44 949.2
20260505151507 64 227 0.0 2.6 0.00 0.00 0.00 44 949.3
20260505140106 61 307 0.0 0.0 0.00 0.00 0.00 48 949.0
20260505130110 60 108 0.0 1.7 0.00 0.00 0.00 47 948.3
20260505124553 60 78 0.0 0.9 0.00 0.00 0.00 47 948.2